Regional Weather Roundup
Issued by NWS Upton, NY

Current Version | Previous Version | Text Only | Print | Product List | Glossary Off
Versions: 1 2 3 4 5 6 7 8 9 10 11 12 13 14 15 16 17 18 19 20 21 22 23 24 25 26 27 28 29 30 31 32 33 34 35 36 37 38 39 40 41 42 43 44 45 46 47 48 49 50
000 ASUS41 KOKX 010005 RWROKX REGIONAL WEATHER ROUNDUP NATIONAL WEATHER SERVICE NEW YORK NY 800 PM EDT TUE SEP 30 2014 NOTE: "FAIR" INDICATES FEW OR NO CLOUDS BELOW 12,000 FEET WITH NO SIGNIFICANT WEATHER AND/OR OBSTRUCTIONS TO VISIBILITY. NYZ071-072-176-178-NJZ106-104-010100- NEW YORK CITY METRO AREA CITY SKY/WX TMP DP RH WIND PRES REMARKS CENTRAL PARK CLOUDY 66 57 72 NE7 29.98S LAGUARDIA APRT CLOUDY 65 59 81 E8 29.95S KENNEDY INTL CLOUDY 65 58 78 NE6 29.96R NEWARK/LIBERTY MOCLDY 67 59 75 NE8 29.95R BRNX BOT. GARD N/A 63 57 82 N1 29.97S TETERBORO CLOUDY 66 57 72 E6 29.95R $$ NYZ177-179-078>081-010100- LONG ISLAND NEW YORK CITY SKY/WX TMP DP RH WIND PRES REMARKS FARMINGDALE CLOUDY 64 58 80 NE6 29.97R ISLIP CLOUDY 63 59 87 NE6 29.95R SHIRLEY CLOUDY 62 59 90 VRB3 29.97R WESTHAMPTON CLOUDY 62 59 90 NE3 29.98R MONTAUK POINT N/A 60 57 89 NE9 29.98S $$ NYZ052-065-067-010100- HUDSON VALLEY CITY SKY/WX TMP DP RH WIND PRES REMARKS WHITE PLAINS MOCLDY 62 57 83 NE3 29.97R NEWBURGH NOT AVBL MONTGOMERY MOCLDY 63 57 81 N3 29.97R POUGHKEEPSIE PTCLDY 62 56 80 E5 29.97R ALBANY PTCLDY 65 56 72 SE5 29.97R $$ NJZ001-105-106-008-010-013-015-019>022-104-010100- NEW JERSEY CITY SKY/WX TMP DP RH WIND PRES REMARKS NEWARK/LIBERTY MOCLDY 67 59 75 NE8 29.95R TETERBORO CLOUDY 66 57 72 E6 29.95R CALDWELL CLEAR 62 56 80 E5 29.96R MORRISTOWN CLEAR 61 57 88 NE3 29.95S SOMERVILLE PTCLDY 64 58 80 CALM 29.94R LINDEN MOCLDY 70 61 72 SE3 29.96S SUSSEX PTCLDY 65 56 72 CALM 29.96R ANDOVER N/A 63 57 81 CALM 29.96R TRENTON PTCLDY 64 57 78 E5 29.94R MILLVILLE CLEAR 63 59 87 E5 29.93R ATLANTIC CITY CLEAR 62 59 90 NE5 29.93R WRIGHTSTOWN CLEAR 62 59 90 E7 29.92R TOMS RIVER PTCLDY 63 57 82 CALM 29.94S BELMAR CLOUDY 64 55 72 E9 29.95R $$ PAZ047>061-062-071-010100- EASTERN PENNSYLVANIA CITY SKY/WX TMP DP RH WIND PRES REMARKS PHILADELPHIA MOCLDY 68 59 73 E9 29.94R ALLENTOWN CLOUDY 68 56 65 E10G17 29.94R SCRANTON CLOUDY 66 55 67 SE3 29.94R $$ CTZ002-004>006-009-010-012-RIZ004-006-007-MAZ004-011-015-010100- SOUTHERN NEW ENGLAND IN CT CITY SKY/WX TMP DP RH WIND PRES REMARKS BRADLEY INTL CLOUDY 62 55 77 NE9 29.99R HARTFORD CLOUDY 61 56 83 VRB6 29.99R DANBURY CLOUDY 60 56 86 E5 30.00R WTRBRY/OXFORD CLOUDY 57 54 88 E8 30.00R BRIDGEPORT CLOUDY 62 58 86 NE6 29.98R MERIDEN CLOUDY 61 56 83 N5 29.99R NEW HAVEN CLOUDY 64 57 78 NE7 29.98R CHESTER CLOUDY 59 57 94 NE5 29.99R GROTON CLOUDY 58 56 93 NE12 29.97S WILLIMANTIC CLOUDY 59 55 87 NE7 30.01R IN RI CITY SKY/WX TMP DP RH WIND PRES REMARKS PROVIDENCE CLOUDY 57 54 89 N14 30.01R BLOCK ISLAND CLOUDY 59 54 82 NE12G23 29.98S WESTERLY CLOUDY 58 56 93 N9 29.98S IN MA CITY SKY/WX TMP DP RH WIND PRES REMARKS BOSTON CLOUDY 56 54 93 NE7 30.04R WORCESTER RAIN 54 54 100 NE6 30.03R FOG WESTFIELD CLOUDY 61 56 83 N6 30.00S PROVINCETOWN CLOUDY 61 55 82 N12 30.01R NANTUCKET CLOUDY 63 61 93 N14 29.95F $$ ANZ330-335-338-340-345-350-353-355-010100- COASTAL MARINE OBSERVATIONS STATION/POSITION TIME SKY/WX TEMP WIND PRES VSBY WAVE AIR SEA DIR/SP/G HT/PER (UTC) (F) (DEG/KT/KT) (MB) (MI) (FT/S) NY HARB ENTRANCE NOT AVBL 4S FIRE IS 0000 68 N/A 3/ 5 20S FIRE ISLAND 0000 64 67 50/ 19/ 21 1013.4 4/ 5 23SW MTP 0000 N/A 4/ 5 HUDSON CANYON 0000 67 69 60/ 17/ 19 1012.3 5/ 5 EXECUTION ROCKS 2300 65 69 80/ 12/ 14 N/A WESTERN LI SOUND 2300 65 60/ 12/ 14 N/A 1/ 3 CENTRAL LI SOUND 2300 63 69 60/ 12/ 16 N/A 1/ 2 EASTERN LI SOUND 2300 62 67 50/ 12/ 17 N/A ROBBINS REEF 0000 66 50/ 12/ 13 1012.8 $$ >>>>>>>>>>>>>>>>>>>>>>>>>>>> KEY <<<<<<<<<<<<<<<<<<<<<<<<<<< > < > SKY/WX - SKY CONDITION/PRESENT WEATHER < > TMP - TEMPERATURE IN FAHRENHEIT < > DP - DEWPOINT IN FAHRENHEIT < > RH - RELATIVE HUMIDITY IN PERCENT < > WIND - DIRECTION AND SPEED IN MPH < > PRES - MEAN SEA LEVEL PRESSURE IN INCHES OF HG < > WCI - WIND CHILL INDEX < > VSB - VISIBILITY IN MILES < > HX - HEAT INDEX < > TC - TEMPERATURE IN CELSIUS < > VRB - VARIABLE WIND DIRECTION < > < >>>>>>>>>>>>>>>>>>>>>>>>>>>> KEY <<<<<<<<<<<<<<<<<<<<<<<<<<<

USA.gov is the U.S. government's official web portal to all federal, state and local government web resources and services.